Terug naar catalogus

USA 259

ActiefMilitairHEO
NORAD 40344·PAYLOAD·🇺🇸 United States

Gelanceerd Dec 13, 2014 vanaf Vandenberg Space Force Base

Loading…

Volgende Passages (komende 24 uur)

TLE

VersSource: Mike McCants

Epoch: Sep 14, 2026, 17:48 UTC

1 40344U 14081A   26257.74185183  .00000202  00000-0  00000-0 0    05
2 40344  63.1235  62.3894 7105988 272.4777  15.2326  2.00612648  1394

Volg USA 259 in realtime met AllMySat

Download on the App Store